This is the latest recevied weather packets stored in our database for station/object KB1WCR. If no packets are shown the sender has not sent any weather packets the latest 1 day(s).
| Time | Temp. | Humidity | Pressure | Rain* | Wind** | Luminosity | Snow |
|---|---|---|---|---|---|---|---|
| 1778047567 | 11.67° C | 91% | 1008 hPa | 0 mm | - | 0 W/m² | - |
| 1778046961 | 11.67° C | 90% | 1007.9 hPa | 0 mm | - | 0 W/m² | - |
| 1778046657 | 11.67° C | 90% | 1008.1 hPa | 0 mm | - | 0 W/m² | - |
| 1778045748 | 12.22° C | 89% | 1008.1 hPa | 0 mm | - | 0 W/m² | - |
| 1778045144 | 12.22° C | 89% | 1008.1 hPa | 0 mm | - | 0 W/m² | - |
| 1778044842 | 12.22° C | 89% | 1008.2 hPa | 0 mm | - | 0 W/m² | - |
| 1778043933 | 12.22° C | 88% | 1008.4 hPa | 0 mm | - | 0 W/m² | - |
| 1778043327 | 12.78° C | 87% | 1008 hPa | 0 mm | - | 0 W/m² | - |
| 1778042418 | 12.22° C | 87% | 1008.1 hPa | 0 mm | - | 0 W/m² | - |
| 1778042115 | 12.78° C | 87% | 1008 hPa | 0 mm | - | 0 W/m² | - |
| 1778041814 | 12.78° C | 86% | 1008 hPa | 0 mm | - | 0 W/m² | - |
| 1778041210 | 12.78° C | 86% | 1008.1 hPa | 0 mm | - | 0 W/m² | - |
| 1778040605 | 13.33° C | 86% | 1007.9 hPa | 0 mm | - | 0 W/m² | - |
| 1778040303 | 13.33° C | 84% | 1008.1 hPa | 0 mm | - | 0 W/m² | - |
| 1778039998 | 13.89° C | 83% | 1008.2 hPa | 0 mm | - | 0 W/m² | - |
| 1778039695 | 13.89° C | 83% | 1008.2 hPa | 0 mm | - | 0 W/m² | - |
| 1778039089 | 13.89° C | 82% | 1008 hPa | 0 mm | - | 0 W/m² | - |
| 1778038786 | 14.44° C | 83% | 1007.9 hPa | 0 mm | - | 0 W/m² | - |
| 1778038484 | 14.44° C | 81% | 1007.9 hPa | 0 mm | - | 0 W/m² | - |
| 1778038180 | 14.44° C | 82% | 1008 hPa | 0 mm | - | 0 W/m² | - |
| 1778037877 | 14.44° C | 82% | 1007.9 hPa | 0 mm | - | 0 W/m² | - |
| 1778037574 | 13.89° C | 83% | 1007.8 hPa | 0 mm | - | 0 W/m² | - |
| 1778037271 | 13.89° C | 84% | 1007.9 hPa | 0 mm | - | 0 W/m² | - |
| 1778036969 | 14.44° C | 84% | 1007.8 hPa | 0 mm | - | 0 W/m² | - |
| 1778036667 | 14.44° C | 84% | 1007.9 hPa | 0 mm | - | 0 W/m² | - |
* Rain latest hour (hover to see other rain measurements)
** Current wind speed in m/s (hover to see current wind gust speed)